< < Back
Terminal Aerodrome Forecast


Current Version              Previous Versions:   1  2  3  4  5  6  7  8  9  

Terminal Aerodrome Forecast

997
FTUS44 KMOB 230500
TAFMOB
TAF
KMOB 230534Z 2306/2406 33003KT 6SM BR SKC
      TEMPO 2309/2313 2SM BR
     FM231800 15006KT P6SM SCT035
     FM240200 VRB03KT P6SM SKC=

Latest METAR

536
SAUS80 KWBC 232200
MTRMOB
METAR KMOB 232156Z 22006KT 10SM FEW030CB SCT041 27/17 A2989 RMK AO2
SLP118 CB E MOV N T02670172


USA.gov is the U.S. government's official web portal to all federal, state and local government web resources and services.